Temp
-6 -6 -6 -6 -6 -6 -6 -6 -5 -5 -5 -5 -5 -5 -5 -5 -5 -6 -6 -6 -6 -6 -7 -7 -7 -7 -7 -8 -8 -8 -8 -8 -8
-6 -6 -6 -6 -6 -6 -6 -6 -6 -6 -5 -5 -5 -5 -5 -5 -5 -6 -6 -6 -6 -6 -7 -7 -7 -7 -8 -8 -8 -8 -8 -8 -8
-7 -7 -6 -6 -6 -7 -6 -7 -6 -6 -6 -6 -5 -5 -5 -5 -6 -6 -6 -6 -6 -6 -6 -7 -7 -7 -7 -8 -8 -8 -8 -8 -8
-7 -7 -7 -7 -6 -7 -7 -7 -7 -7 -6 -6 -6 -6 -5 -6 -6 -6 -6 -6 -6 -6 -7 -7 -7 -7 -8 -8 -8 -8 -8 -8 -8
-7 -7 -8 -8 -7 -6 -7 -7 -7 -7 -7 -7 -6 -6 -6 -6 -6 -6 -6 -6 -6 -7 -7 -7 -7 -7 -7 -8 -8 -8 -9 -9 -9
-7 -8 -8 -8 -8 -7 -7 -7 -7 -7 -7 -7 -7 -6 -6 -6 -6 -6 -6 -6 -6 -7 -7 -7 -7 -7 -7 -8 -8 -8 -9 -9 -9
-7 -7 -8 -8 -8 -8 -8 -8 -7 -7 -7 -7 -7 -7 -7 -7 -6 -6 -6 -7 -7 -7 -7 -7 -7 -7 -8 -8 -8 -8 -9 -9 -9
-7 -8 -8 -8 -8 -9 -9 -8 -8 -8 -7 -7 -7 -7 -7 -7 -7 -7 -7 -7 -7 -7 -7 -7 -7 -8 -8 -8 -8 -8 -9 -9 -9
-8 -8 -8 -8 -9 -9 -10 -9 -9 -8 -8 -8 -7 -7 -7 -7 -7 -7 -7 -7 -7 -7 -7 -7 -8 -8 -8 -8 -8 -9 -9 -9 -9
-9 -9 -9 -9 -9 -10 -10 -10 -9 -9 -9 -9 -8 -8 -8 -7 -8 -8 -8 -8 -8 -8 -8 -8 -8 -8 -8 -8 -8 -9 -9 -9 -9
-9 -9 -10 -10 -10 -10 -10 -10 -10 -10 -9 -10 -9 -9 -9 -8 -8 -8 -8 -8 -8 -8 -8 -8 -8 -8 -8 -9 -9 -9 -9 -9 -9
-9 -9 -10 -10 -10 -10 -10 -10 -10 -10 -11 -10 -10 -10 -10 -9 -8 -8 -8 -8 -8 -8 -8 -8 -9 -9 -9 -9 -9 -9 -9 -10 -9
-10 -9 -9 -10 -10 -10 -10 -10 -10 -10 -11 -11 -10 -9 -9 -10 -9 -9 -8 -8 -8 -8 -8 -8 -8 -9 -9 -9 -9 -9 -10 -10 -10
-11 -11 -10 -10 -10 -10 -10 -10 -11 -11 -12 -11 -10 -10 -9 -9 -9 -9 -9 -9 -9 -8 -8 -8 -9 -9 -9 -10 -10 -10 -10 -10 -10
-11 -10 -10 -10 -10 -9 -10 -9 -10 -11 -11 -11 -11 -11 -10 -10 -10 -10 -10 -9 -9 -9 -9 -9 -9 -9 -10 -10 -10 -10 -10 -10 -11
-12 -11 -11 -10 -10 -10 -10 -10 -10 -11 -12 -11 -11 -11 -11 -10 -11 -11 -11 -10 -10 -10 -10 -10 -10 -10 -10 -10 -10 -10 -10 -10 -10
-12 -12 -11 -12 -11 -11 -11 -11 -11 -11 -11 -11 -11 -10 -10 -11 -11 -11 -11 -11 -11 -10 -10 -10 -10 -10 -10 -11 -11 -11 -11 -11 -11
-13 -12 -12 -12 -12 -11 -11 -10 -10 -11 -12 -12 -11 -11 -10 -11 -11 -11 -11 -10 -10 -11 -11 -10 -11 -12 -12 -12 -12 -12 -12 -12 -13
-13 -12 -12 -12 -12 -12 -11 -10 -11 -11 -12 -12 -11 -11 -11 -11 -11 -11 -11 -11 -11 -11 -11 -11 -13 -12 -12 -12 -12 -13 -13 -13 -13
-13 -12 -12 -13 -13 -12 -11 -11 -11 -11 -12 -12 -12 -12 -11 -11 -12 -12 -12 -12 -11 -11 -11 -12 -12 -13 -13 -13 -14 -14 -13 -13 -13
Height
5878 5879 5881 5882 5883 5884 5885 5886 5887 5888 5889 5889 5890 5890 5890 5890 5890 5889 5890 5890 5889 5889 5889 5888 5887 5886 5885 5884 5883 5882 5880 5879 5878
5874 5875 5876 5879 5879 5881 5881 5883 5884 5885 5886 5886 5887 5887 5887 5887 5887 5887 5887 5887 5887 5887 5886 5886 5885 5884 5883 5883 5881 5880 5879 5877 5876
5869 5870 5872 5874 5876 5877 5878 5878 5879 5881 5882 5883 5884 5884 5884 5884 5885 5885 5885 5884 5884 5884 5884 5884 5883 5882 5881 5880 5879 5878 5877 5875 5874
5862 5865 5867 5868 5870 5872 5874 5875 5875 5877 5878 5878 5879 5880 5880 5881 5881 5881 5882 5882 5881 5881 5881 5881 5880 5879 5878 5877 5876 5876 5874 5873 5872
5856 5858 5860 5861 5862 5866 5868 5869 5871 5871 5873 5874 5874 5875 5876 5877 5877 5878 5878 5878 5878 5878 5878 5877 5877 5876 5875 5875 5874 5873 5872 5871 5869
5848 5850 5852 5854 5856 5858 5862 5863 5865 5866 5867 5868 5869 5870 5870 5871 5872 5873 5873 5873 5874 5874 5874 5873 5873 5872 5872 5871 5870 5870 5869 5867 5866
5842 5843 5845 5846 5849 5851 5854 5857 5858 5859 5860 5862 5864 5865 5865 5865 5867 5867 5868 5868 5868 5868 5869 5869 5868 5868 5867 5867 5866 5866 5865 5863 5862
5834 5835 5837 5838 5840 5843 5845 5848 5850 5852 5853 5855 5857 5859 5860 5860 5861 5862 5863 5863 5863 5864 5864 5864 5864 5864 5863 5862 5861 5861 5860 5859 5857
5826 5828 5829 5830 5832 5834 5837 5839 5842 5845 5847 5848 5849 5851 5853 5854 5855 5856 5857 5857 5857 5858 5859 5858 5859 5858 5858 5857 5857 5856 5855 5854 5852
5818 5819 5821 5822 5824 5826 5827 5830 5833 5836 5839 5840 5842 5843 5844 5847 5849 5849 5851 5852 5853 5852 5853 5853 5853 5852 5852 5851 5851 5850 5849 5848 5846
5808 5810 5813 5816 5817 5819 5819 5821 5822 5825 5829 5832 5834 5835 5837 5838 5840 5842 5843 5845 5846 5847 5847 5847 5847 5847 5846 5845 5845 5844 5843 5842 5840
5799 5802 5804 5806 5809 5811 5812 5814 5814 5816 5819 5821 5824 5826 5827 5830 5832 5834 5836 5837 5838 5839 5840 5840 5840 5840 5840 5839 5839 5838 5837 5835 5834
5789 5792 5795 5797 5799 5801 5804 5807 5807 5807 5808 5811 5813 5817 5820 5821 5823 5825 5827 5829 5830 5831 5832 5832 5832 5832 5832 5832 5831 5831 5829 5828 5827
5779 5784 5787 5789 5791 5793 5794 5795 5797 5797 5799 5800 5802 5805 5810 5813 5814 5816 5819 5820 5821 5822 5823 5823 5824 5823 5824 5823 5823 5822 5822 5820 5820
5773 5775 5777 5779 5781 5783 5784 5785 5783 5786 5787 5789 5791 5794 5799 5801 5805 5807 5810 5810 5812 5813 5813 5814 5815 5814 5814 5814 5813 5811 5812 5811 5810
5763 5765 5766 5770 5771 5773 5773 5774 5773 5775 5776 5776 5781 5784 5788 5788 5790 5794 5797 5800 5800 5802 5803 5803 5804 5804 5804 5805 5804 5804 5803 5801 5800
5752 5756 5756 5757 5761 5762 5763 5764 5762 5764 5764 5768 5771 5773 5777 5780 5783 5782 5785 5787 5787 5789 5791 5792 5793 5793 5793 5793 5794 5793 5792 5791 5791
5742 5744 5745 5747 5750 5751 5751 5752 5753 5753 5754 5756 5759 5760 5764 5765 5768 5770 5771 5773 5774 5776 5778 5778 5780 5778 5778 5780 5781 5781 5781 5780 5780
5731 5735 5736 5737 5739 5740 5740 5739 5741 5740 5743 5746 5748 5751 5753 5754 5757 5759 5761 5758 5760 5762 5764 5764 5765 5766 5765 5768 5768 5768 5769 5770 5771
5722 5724 5726 5727 5728 5729 5729 5728 5728 5729 5731 5735 5738 5739 5741 5743 5745 5747 5749 5748 5748 5748 5749 5750 5754 5755 5757 5757 5758 5757 5757 5759 5760
Wind_Speed
27 26 24 21 18 16 13 12 13 13 11 11 10 9 8 8 7 8 9 9 10 10 11 12 13 13 14 14 14 14 14 15 16
30 29 28 25 23 20 19 16 16 15 14 14 13 12 11 10 10 9 10 10 11 11 11 13 13 14 14 15 17 16 16 17 17
33 33 31 29 27 25 23 20 19 18 17 16 16 16 15 13 12 12 11 11 12 13 13 14 14 15 16 16 17 17 17 17 18
33 37 35 34 31 28 28 26 23 21 20 19 19 20 19 18 16 14 14 14 14 15 15 15 15 15 17 17 18 18 19 18 18
32 34 36 36 35 33 30 30 29 25 23 23 22 22 22 21 20 18 17 17 17 17 16 16 16 16 17 19 19 19 19 20 20
31 32 36 39 41 41 34 32 32 30 28 26 26 25 25 25 24 23 21 20 19 19 19 19 18 18 18 19 20 20 20 21 22
35 35 35 37 40 40 39 37 35 35 33 31 30 29 28 27 27 26 25 23 22 22 21 22 21 20 20 20 21 21 22 22 23
39 38 37 37 39 41 42 40 39 37 37 36 33 32 31 31 30 29 28 26 25 25 24 24 24 23 23 23 22 23 23 24 24
40 40 41 40 40 40 41 42 42 41 38 38 37 36 35 34 33 32 31 30 28 27 27 26 26 26 26 25 25 25 25 26 26
42 41 36 37 39 41 42 43 45 43 41 39 40 39 38 37 36 35 34 33 31 30 29 29 28 28 29 29 29 28 27 27 28
43 41 36 36 35 33 38 40 45 47 47 43 41 40 39 39 38 38 37 35 34 33 32 32 31 31 31 31 31 30 30 31 31
46 46 42 43 42 39 36 42 47 48 49 47 46 43 41 40 40 39 39 38 37 36 36 35 35 34 34 34 33 34 34 34 36
47 46 44 43 42 41 43 45 42 50 49 48 47 47 46 42 42 42 41 40 40 40 40 39 38 37 37 36 35 36 37 36 36
45 49 46 47 47 47 46 48 52 55 55 52 51 50 48 47 46 43 44 43 42 43 43 42 41 41 40 38 37 38 42 41 41
47 48 49 48 49 50 54 51 48 51 60 50 47 42 49 54 55 52 49 47 48 45 44 43 43 43 41 40 41 41 44 46 43
55 49 49 48 47 50 50 48 49 50 55 55 54 44 56 51 46 41 44 50 51 50 46 45 45 44 42 42 44 44 50 51 50
49 50 51 53 51 46 46 44 46 51 55 57 55 54 58 55 53 59 59 57 54 51 50 47 44 44 46 52 50 52 54 53 55
53 52 56 57 52 44 49 48 47 56 55 47 55 54 51 44 47 54 55 55 56 54 55 52 57 57 57 56 55 54 57 57 53
52 54 56 59 49 44 47 48 50 50 55 53 50 53 55 55 48 46 53 55 56 58 66 56 58 57 59 57 58 61 63 57 50
51 52 51 53 52 48 48 50 50 44 54 56 52 44 48 47 51 52 60 66 69 64 63 65 55 50 43 44 40 38 36 36 38
Wind_Direction
253 253 253 249 245 242 249 250 255 265 265 263 265 270 279 279 271 268 269 269 271 276 280 284 290 295 302 310 316 320 322 322 324
252 254 256 256 252 247 245 247 250 252 260 255 256 258 263 269 270 265 267 269 269 272 275 280 286 289 297 306 312 319 321 321 323
249 253 256 256 255 254 251 247 249 248 248 256 252 252 255 258 262 265 264 266 269 271 273 279 284 291 295 299 306 312 318 319 321
248 251 253 256 254 251 255 253 249 250 250 246 251 250 250 254 255 257 262 263 265 269 273 277 281 285 289 293 300 307 313 316 317
250 247 251 250 256 249 250 253 254 251 251 252 246 246 249 250 252 254 257 260 263 266 269 271 277 281 285 290 295 300 306 311 314
253 250 249 248 249 253 256 251 252 253 254 253 251 248 244 248 250 251 252 256 260 264 267 265 269 275 280 284 289 296 301 306 310
255 254 250 251 250 251 252 255 249 249 250 252 255 252 249 246 249 250 251 253 257 261 265 265 265 269 273 278 284 291 295 300 305
254 253 254 253 252 252 251 252 251 248 247 247 251 255 254 251 249 251 252 253 256 260 264 267 267 268 271 275 280 284 289 293 299
256 257 256 255 255 253 252 253 252 253 249 249 247 250 255 254 252 252 252 252 254 258 261 265 267 267 270 272 276 279 284 289 294
250 254 246 252 253 255 253 253 253 254 252 250 251 249 250 254 255 254 254 255 257 258 261 264 266 267 268 270 272 276 281 285 289
245 245 241 244 244 249 257 255 252 251 253 252 249 256 254 252 254 256 256 257 258 261 263 265 267 267 268 270 273 275 278 283 287
246 245 244 234 239 241 250 262 262 256 253 253 252 249 253 255 254 256 258 259 259 261 262 264 267 268 270 272 274 275 277 281 289
242 242 243 244 245 248 253 248 251 266 257 252 255 254 253 255 256 257 257 257 260 261 262 263 265 267 268 270 272 273 274 276 280
242 243 248 253 254 260 261 261 250 245 254 252 252 254 259 253 254 259 259 259 260 261 262 264 264 266 268 270 272 274 275 274 276
250 250 252 254 257 260 261 265 258 247 249 254 258 254 262 259 264 261 260 261 261 261 262 264 264 265 266 267 267 267 272 275 275
247 249 253 257 263 262 262 267 262 247 248 250 251 255 257 258 261 243 263 267 258 262 261 262 262 265 266 268 270 272 275 274 274
252 255 259 262 267 266 264 265 258 252 250 252 251 259 259 264 264 264 262 266 258 253 258 260 263 261 260 264 267 268 270 272 278
250 253 260 266 271 268 264 267 263 253 253 251 246 249 255 258 264 263 256 258 255 253 253 257 261 258 257 262 264 264 266 270 274
257 256 260 266 266 270 269 269 263 254 250 245 248 248 254 256 258 259 255 251 256 262 266 266 259 259 260 267 271 268 269 273 275
256 256 259 262 269 274 276 268 263 258 249 250 252 254 258 260 263 263 262 263 266 263 263 262 270 269 264 266 263 268 276 273 276